owner,sensor,date,latitude,longitude,air_temperature,qcFlag 
DISL,ioos:station:DISL:MHPA:1,2017-11-01T00:30:00Z,30.6671,-87.9365,18.8,1111122 
DISL,ioos:station:DISL:MHPA:1,2017-11-01T01:30:00Z,30.6671,-87.9365,17.93,1111122 
DISL,ioos:station:DISL:MHPA:1,2017-11-01T02:30:00Z,30.6671,-87.9365,17.7,1111122 
DISL,ioos:station:DISL:MHPA:1,2017-11-01T03:30:00Z,30.6671,-87.9365,17.43,1111122 
DISL,ioos:station:DISL:MHPA:1,2017-11-01T04:30:00Z,30.6671,-87.9365,17.06,1111122 
DISL,ioos:station:DISL:MHPA:1,2017-11-01T05:30:00Z,30.6671,-87.9365,17.2,1111122 
DISL,ioos:station:DISL:MHPA:1,2017-11-01T06:30:00Z,30.6671,-87.9365,17.53,1111122 
DISL,ioos:station:DISL:MHPA:1,2017-11-01T07:30:00Z,30.6671,-87.9365,17.36,1111122 
DISL,ioos:station:DISL:MHPA:1,2017-11-01T08:30:00Z,30.6671,-87.9365,17.2,1111122 
DISL,ioos:station:DISL:MHPA:1,2017-11-01T09:30:00Z,30.6671,-87.9365,17.26,1111122 
DISL,ioos:station:DISL:MHPA:1,2017-11-01T10:30:00Z,30.6671,-87.9365,17.33,1111122 
DISL,ioos:station:DISL:MHPA:1,2017-11-01T11:30:00Z,30.6671,-87.9365,16.96,1111122 
DISL,ioos:station:DISL:MHPA:1,2017-11-01T12:30:00Z,30.6671,-87.9365,17.3,1111122 
DISL,ioos:station:DISL:MHPA:1,2017-11-01T13:30:00Z,30.6671,-87.9365,18.4,1111122 
DISL,ioos:station:DISL:MHPA:1,2017-11-01T14:30:00Z,30.6671,-87.9365,20.71,1111122 
DISL,ioos:station:DISL:MHPA:1,2017-11-01T15:30:00Z,30.6671,-87.9365,22.42,1111122 
DISL,ioos:station:DISL:MHPA:1,2017-11-01T16:30:00Z,30.6671,-87.9365,23.08,1111122 
DISL,ioos:station:DISL:MHPA:1,2017-11-01T17:30:00Z,30.6671,-87.9365,23.18,1111122 
DISL,ioos:station:DISL:MHPA:1,2017-11-01T18:30:00Z,30.6671,-87.9365,23.58,1111122 
DISL,ioos:station:DISL:MHPA:1,2017-11-01T19:30:00Z,30.6671,-87.9365,22.4,1111122 
DISL,ioos:station:DISL:MHPA:1,2017-11-01T20:30:00Z,30.6671,-87.9365,23.28,1111122 
DISL,ioos:station:DISL:MHPA:1,2017-11-01T21:30:00Z,30.6671,-87.9365,23.89,1111122 
DISL,ioos:station:DISL:MHPA:1,2017-11-01T22:30:00Z,30.6671,-87.9365,22.95,1111122 
DISL,ioos:station:DISL:MHPA:1,2017-11-01T23:30:00Z,30.6671,-87.9365,22.22,1111122 
DISL,ioos:station:DISL:MHPA:1,2017-11-02T00:30:00Z,30.6671,-87.9365,21.82,1111122 
DISL,ioos:station:DISL:MHPA:1,2017-11-02T01:30:00Z,30.6671,-87.9365,21.48,1111122 
DISL,ioos:station:DISL:MHPA:1,2017-11-02T02:30:00Z,30.6671,-87.9365,21.38,1111122 
DISL,ioos:station:DISL:MHPA:1,2017-11-02T03:30:00Z,30.6671,-87.9365,21.55,1111122 
DISL,ioos:station:DISL:MHPA:1,2017-11-02T04:30:00Z,30.6671,-87.9365,20.97,1111122 
DISL,ioos:station:DISL:MHPA:1,2017-11-02T05:30:00Z,30.6671,-87.9365,21.58,1111122 
DISL,ioos:station:DISL:MHPA:1,2017-11-02T06:30:00Z,30.6671,-87.9365,20.24,1111122 
DISL,ioos:station:DISL:MHPA:1,2017-11-02T07:30:00Z,30.6671,-87.9365,20.18,1111122 
DISL,ioos:station:DISL:MHPA:1,2017-11-02T08:30:00Z,30.6671,-87.9365,20.28,1111122 
DISL,ioos:station:DISL:MHPA:1,2017-11-02T09:30:00Z,30.6671,-87.9365,20.01,1111122 
DISL,ioos:station:DISL:MHPA:1,2017-11-02T10:30:00Z,30.6671,-87.9365,20.15,1111122 
DISL,ioos:station:DISL:MHPA:1,2017-11-02T11:30:00Z,30.6671,-87.9365,20.35,1111122 
DISL,ioos:station:DISL:MHPA:1,2017-11-02T12:30:00Z,30.6671,-87.9365,20.58,1111122 
DISL,ioos:station:DISL:MHPA:1,2017-11-02T13:30:00Z,30.6671,-87.9365,21.38,1111122 
DISL,ioos:station:DISL:MHPA:1,2017-11-02T14:30:00Z,30.6671,-87.9365,23.77,1111122 
DISL,ioos:station:DISL:MHPA:1,2017-11-02T15:30:00Z,30.6671,-87.9365,24.35,1111122 
DISL,ioos:station:DISL:MHPA:1,2017-11-02T16:30:00Z,30.6671,-87.9365,24.22,1111122 
DISL,ioos:station:DISL:MHPA:1,2017-11-02T17:30:00Z,30.6671,-87.9365,23.87,1111122 
DISL,ioos:station:DISL:MHPA:1,2017-11-02T18:30:00Z,30.6671,-87.9365,23.93,1111122 
DISL,ioos:station:DISL:MHPA:1,2017-11-02T19:30:00Z,30.6671,-87.9365,23.99,1111122 
DISL,ioos:station:DISL:MHPA:1,2017-11-02T20:30:00Z,30.6671,-87.9365,23.8,1111122 
DISL,ioos:station:DISL:MHPA:1,2017-11-02T21:30:00Z,30.6671,-87.9365,23.43,1111122 
DISL,ioos:station:DISL:MHPA:1,2017-11-02T22:30:00Z,30.6671,-87.9365,23.64,1111122 
DISL,ioos:station:DISL:MHPA:1,2017-11-02T23:30:00Z,30.6671,-87.9365,23.52,1111122 
DISL,ioos:station:DISL:MHPA:1,2017-11-03T00:30:00Z,30.6671,-87.9365,23.4,1111122 
DISL,ioos:station:DISL:MHPA:1,2017-11-03T01:30:00Z,30.6671,-87.9365,22.93,1111122 
DISL,ioos:station:DISL:MHPA:1,2017-11-03T02:30:00Z,30.6671,-87.9365,21.92,1111122 
DISL,ioos:station:DISL:MHPA:1,2017-11-03T03:30:00Z,30.6671,-87.9365,21.31,1111122 
DISL,ioos:station:DISL:MHPA:1,2017-11-03T04:30:00Z,30.6671,-87.9365,21.65,1111122 
DISL,ioos:station:DISL:MHPA:1,2017-11-03T05:30:00Z,30.6671,-87.9365,21.45,1111122 
DISL,ioos:station:DISL:MHPA:1,2017-11-03T06:30:00Z,30.6671,-87.9365,21.45,1111122 
DISL,ioos:station:DISL:MHPA:1,2017-11-03T07:30:00Z,30.6671,-87.9365,21.18,1111122 
DISL,ioos:station:DISL:MHPA:1,2017-11-03T08:30:00Z,30.6671,-87.9365,20.95,1111122 
DISL,ioos:station:DISL:MHPA:1,2017-11-03T09:30:00Z,30.6671,-87.9365,20.55,1111122 
DISL,ioos:station:DISL:MHPA:1,2017-11-03T10:30:00Z,30.6671,-87.9365,20.18,1111122 
DISL,ioos:station:DISL:MHPA:1,2017-11-03T11:30:00Z,30.6671,-87.9365,19.74,1111122 
DISL,ioos:station:DISL:MHPA:1,2017-11-03T12:30:00Z,30.6671,-87.9365,19.54,1111122 
DISL,ioos:station:DISL:MHPA:1,2017-11-03T13:30:00Z,30.6671,-87.9365,20.62,1111122 
DISL,ioos:station:DISL:MHPA:1,2017-11-03T14:30:00Z,30.6671,-87.9365,22.09,1111122 
DISL,ioos:station:DISL:MHPA:1,2017-11-03T15:30:00Z,30.6671,-87.9365,22.07,1111122 
DISL,ioos:station:DISL:MHPA:1,2017-11-03T16:30:00Z,30.6671,-87.9365,22.77,1111122 
DISL,ioos:station:DISL:MHPA:1,2017-11-03T17:30:00Z,30.6671,-87.9365,23.09,1111122 
DISL,ioos:station:DISL:MHPA:1,2017-11-03T18:30:00Z,30.6671,-87.9365,23.23,1111122 
DISL,ioos:station:DISL:MHPA:1,2017-11-03T19:30:00Z,30.6671,-87.9365,23.24,1111122 
DISL,ioos:station:DISL:MHPA:1,2017-11-03T20:30:00Z,30.6671,-87.9365,23.33,1111122 
DISL,ioos:station:DISL:MHPA:1,2017-11-03T21:30:00Z,30.6671,-87.9365,23.33,1111122 
DISL,ioos:station:DISL:MHPA:1,2017-11-03T22:30:00Z,30.6671,-87.9365,23.03,1111122 
DISL,ioos:station:DISL:MHPA:1,2017-11-03T23:30:00Z,30.6671,-87.9365,22.82,1111122 
DISL,ioos:station:DISL:MHPA:1,2017-11-04T00:30:00Z,30.6671,-87.9365,22.49,1111122 
DISL,ioos:station:DISL:MHPA:1,2017-11-04T01:30:00Z,30.6671,-87.9365,22.29,1111122 
DISL,ioos:station:DISL:MHPA:1,2017-11-04T02:30:00Z,30.6671,-87.9365,21.85,1111122 
DISL,ioos:station:DISL:MHPA:1,2017-11-04T03:30:00Z,30.6671,-87.9365,21.01,1111122 
DISL,ioos:station:DISL:MHPA:1,2017-11-04T04:30:00Z,30.6671,-87.9365,20.52,1111122 
DISL,ioos:station:DISL:MHPA:1,2017-11-04T05:30:00Z,30.6671,-87.9365,20.35,1111122 
DISL,ioos:station:DISL:MHPA:1,2017-11-04T06:30:00Z,30.6671,-87.9365,20.05,1111122 
DISL,ioos:station:DISL:MHPA:1,2017-11-04T07:30:00Z,30.6671,-87.9365,19.1,1111122 
DISL,ioos:station:DISL:MHPA:1,2017-11-04T08:30:00Z,30.6671,-87.9365,19.04,1111122 
DISL,ioos:station:DISL:MHPA:1,2017-11-04T09:30:00Z,30.6671,-87.9365,18.9,1111122 
DISL,ioos:station:DISL:MHPA:1,2017-11-04T10:30:00Z,30.6671,-87.9365,19.14,1111122 
DISL,ioos:station:DISL:MHPA:1,2017-11-04T11:30:00Z,30.6671,-87.9365,19.3,1111122 
DISL,ioos:station:DISL:MHPA:1,2017-11-04T12:30:00Z,30.6671,-87.9365,19.37,1111122 
DISL,ioos:station:DISL:MHPA:1,2017-11-04T13:30:00Z,30.6671,-87.9365,20.11,1111122 
DISL,ioos:station:DISL:MHPA:1,2017-11-04T14:30:00Z,30.6671,-87.9365,20.37,1111122 
DISL,ioos:station:DISL:MHPA:1,2017-11-04T15:30:00Z,30.6671,-87.9365,20.72,1111122 
DISL,ioos:station:DISL:MHPA:1,2017-11-04T16:30:00Z,30.6671,-87.9365,21.36,1111122 
DISL,ioos:station:DISL:MHPA:1,2017-11-04T17:30:00Z,30.6671,-87.9365,22.01,1111122 
DISL,ioos:station:DISL:MHPA:1,2017-11-04T18:30:00Z,30.6671,-87.9365,23.67,1111122 
DISL,ioos:station:DISL:MHPA:1,2017-11-04T19:30:00Z,30.6671,-87.9365,23.82,1111122 
DISL,ioos:station:DISL:MHPA:1,2017-11-04T20:30:00Z,30.6671,-87.9365,23.33,1111122 
DISL,ioos:station:DISL:MHPA:1,2017-11-04T21:30:00Z,30.6671,-87.9365,23.19,1111122 
DISL,ioos:station:DISL:MHPA:1,2017-11-04T22:30:00Z,30.6671,-87.9365,23.01,1111122 
DISL,ioos:station:DISL:MHPA:1,2017-11-04T23:30:00Z,30.6671,-87.9365,22.79,1111122 
DISL,ioos:station:DISL:MHPA:1,2017-11-05T00:30:00Z,30.6671,-87.9365,22.66,1111122 
DISL,ioos:station:DISL:MHPA:1,2017-11-05T01:30:00Z,30.6671,-87.9365,22.42,1111122 
DISL,ioos:station:DISL:MHPA:1,2017-11-05T02:30:00Z,30.6671,-87.9365,21.72,1111122 
DISL,ioos:station:DISL:MHPA:1,2017-11-05T03:30:00Z,30.6671,-87.9365,22.05,1111122 
DISL,ioos:station:DISL:MHPA:1,2017-11-05T04:30:00Z,30.6671,-87.9365,21.45,1111122 
DISL,ioos:station:DISL:MHPA:1,2017-11-05T05:30:00Z,30.6671,-87.9365,20.69,1111122 
DISL,ioos:station:DISL:MHPA:1,2017-11-05T06:30:00Z,30.6671,-87.9365,20.35,1111122 
DISL,ioos:station:DISL:MHPA:1,2017-11-05T08:30:00Z,30.6671,-87.9365,19.61,1111122 
DISL,ioos:station:DISL:MHPA:1,2017-11-05T09:30:00Z,30.6671,-87.9365,18.46,1111122 
DISL,ioos:station:DISL:MHPA:1,2017-11-05T10:30:00Z,30.6671,-87.9365,18.13,1111122 
DISL,ioos:station:DISL:MHPA:1,2017-11-05T11:30:00Z,30.6671,-87.9365,17.8,1111122 
DISL,ioos:station:DISL:MHPA:1,2017-11-05T12:30:00Z,30.6671,-87.9365,18.1,1111122 
DISL,ioos:station:DISL:MHPA:1,2017-11-05T13:30:00Z,30.6671,-87.9365,18.9,1111122 
DISL,ioos:station:DISL:MHPA:1,2017-11-05T14:30:00Z,30.6671,-87.9365,20.78,1111122 
DISL,ioos:station:DISL:MHPA:1,2017-11-05T15:30:00Z,30.6671,-87.9365,21.39,1111122 
DISL,ioos:station:DISL:MHPA:1,2017-11-05T16:30:00Z,30.6671,-87.9365,22.11,1111122 
DISL,ioos:station:DISL:MHPA:1,2017-11-05T17:30:00Z,30.6671,-87.9365,22.75,1111122 
DISL,ioos:station:DISL:MHPA:1,2017-11-05T18:30:00Z,30.6671,-87.9365,23.29,1111122 
DISL,ioos:station:DISL:MHPA:1,2017-11-05T19:30:00Z,30.6671,-87.9365,23.55,1111122 
DISL,ioos:station:DISL:MHPA:1,2017-11-05T20:30:00Z,30.6671,-87.9365,23.84,1111122 
DISL,ioos:station:DISL:MHPA:1,2017-11-05T21:30:00Z,30.6671,-87.9365,23.73,1111122 
DISL,ioos:station:DISL:MHPA:1,2017-11-05T22:30:00Z,30.6671,-87.9365,23.64,1111122 
DISL,ioos:station:DISL:MHPA:1,2017-11-05T23:30:00Z,30.6671,-87.9365,23.35,1111122 
DISL,ioos:station:DISL:MHPA:1,2017-11-06T00:30:00Z,30.6671,-87.9365,22.66,1111122 
DISL,ioos:station:DISL:MHPA:1,2017-11-06T01:30:00Z,30.6671,-87.9365,22.22,1111122 
DISL,ioos:station:DISL:MHPA:1,2017-11-06T02:30:00Z,30.6671,-87.9365,22.02,1111122 
DISL,ioos:station:DISL:MHPA:1,2017-11-06T03:30:00Z,30.6671,-87.9365,21.79,1111122 
DISL,ioos:station:DISL:MHPA:1,2017-11-06T04:30:00Z,30.6671,-87.9365,21.72,1111122 
DISL,ioos:station:DISL:MHPA:1,2017-11-06T05:30:00Z,30.6671,-87.9365,21.72,1111122 
DISL,ioos:station:DISL:MHPA:1,2017-11-06T06:30:00Z,30.6671,-87.9365,21.58,1111122 
DISL,ioos:station:DISL:MHPA:1,2017-11-06T07:30:00Z,30.6671,-87.9365,21.61,1111122 
DISL,ioos:station:DISL:MHPA:1,2017-11-06T08:30:00Z,30.6671,-87.9365,20.92,1111122 
DISL,ioos:station:DISL:MHPA:1,2017-11-06T09:30:00Z,30.6671,-87.9365,20.66,1111122 
DISL,ioos:station:DISL:MHPA:1,2017-11-06T10:30:00Z,30.6671,-87.9365,19.91,1111122 
DISL,ioos:station:DISL:MHPA:1,2017-11-06T11:30:00Z,30.6671,-87.9365,19.57,1111122 
DISL,ioos:station:DISL:MHPA:1,2017-11-06T12:30:00Z,30.6671,-87.9365,19.44,1111122 
DISL,ioos:station:DISL:MHPA:1,2017-11-06T13:30:00Z,30.6671,-87.9365,22.91,1111122 
DISL,ioos:station:DISL:MHPA:1,2017-11-06T14:30:00Z,30.6671,-87.9365,22.62,1111122 
DISL,ioos:station:DISL:MHPA:1,2017-11-06T15:30:00Z,30.6671,-87.9365,22.88,1111122 
DISL,ioos:station:DISL:MHPA:1,2017-11-06T16:30:00Z,30.6671,-87.9365,22.91,1111122 
DISL,ioos:station:DISL:MHPA:1,2017-11-06T17:30:00Z,30.6671,-87.9365,23.3,1111122 
DISL,ioos:station:DISL:MHPA:1,2017-11-06T18:30:00Z,30.6671,-87.9365,23.55,1111122 
DISL,ioos:station:DISL:MHPA:1,2017-11-06T19:30:00Z,30.6671,-87.9365,23.52,1111122 
DISL,ioos:station:DISL:MHPA:1,2017-11-06T20:30:00Z,30.6671,-87.9365,23.75,1111122 
DISL,ioos:station:DISL:MHPA:1,2017-11-06T21:30:00Z,30.6671,-87.9365,23.99,1111122 
DISL,ioos:station:DISL:MHPA:1,2017-11-06T22:30:00Z,30.6671,-87.9365,23.79,1111122 
DISL,ioos:station:DISL:MHPA:1,2017-11-06T23:30:00Z,30.6671,-87.9365,23.7,1111122 
DISL,ioos:station:DISL:MHPA:1,2017-11-07T00:30:00Z,30.6671,-87.9365,23.37,1111122 
DISL,ioos:station:DISL:MHPA:1,2017-11-07T01:30:00Z,30.6671,-87.9365,23.27,1111122 
DISL,ioos:station:DISL:MHPA:1,2017-11-07T02:30:00Z,30.6671,-87.9365,23.17,1111122 
DISL,ioos:station:DISL:MHPA:1,2017-11-07T03:30:00Z,30.6671,-87.9365,23.07,1111122 
DISL,ioos:station:DISL:MHPA:1,2017-11-07T04:30:00Z,30.6671,-87.9365,23.0,1111122 
DISL,ioos:station:DISL:MHPA:1,2017-11-07T05:30:00Z,30.6671,-87.9365,22.83,1111122 
DISL,ioos:station:DISL:MHPA:1,2017-11-07T06:30:00Z,30.6671,-87.9365,22.73,1111122 
DISL,ioos:station:DISL:MHPA:1,2017-11-07T07:00:00Z,30.6671,-87.9365,22.8,1111122 
DISL,ioos:station:DISL:MHPA:1,2017-11-07T08:30:00Z,30.6671,-87.9365,22.59,1111122 
DISL,ioos:station:DISL:MHPA:1,2017-11-07T09:30:00Z,30.6671,-87.9365,22.63,1111122 
DISL,ioos:station:DISL:MHPA:1,2017-11-07T10:30:00Z,30.6671,-87.9365,22.36,1111122 
DISL,ioos:station:DISL:MHPA:1,2017-11-07T11:30:00Z,30.6671,-87.9365,22.32,1111122 
DISL,ioos:station:DISL:MHPA:1,2017-11-07T12:30:00Z,30.6671,-87.9365,21.68,1111122 
DISL,ioos:station:DISL:MHPA:1,2017-11-07T13:30:00Z,30.6671,-87.9365,21.88,1111122 
DISL,ioos:station:DISL:MHPA:1,2017-11-07T14:30:00Z,30.6671,-87.9365,22.05,1111122 
DISL,ioos:station:DISL:MHPA:1,2017-11-07T15:30:00Z,30.6671,-87.9365,22.37,1111122 
DISL,ioos:station:DISL:MHPA:1,2017-11-07T16:30:00Z,30.6671,-87.9365,22.76,1111122 
DISL,ioos:station:DISL:MHPA:1,2017-11-07T17:30:00Z,30.6671,-87.9365,23.29,1111122 
DISL,ioos:station:DISL:MHPA:1,2017-11-07T18:30:00Z,30.6671,-87.9365,23.97,1111122 
DISL,ioos:station:DISL:MHPA:1,2017-11-07T19:30:00Z,30.6671,-87.9365,24.34,1111122 
DISL,ioos:station:DISL:MHPA:1,2017-11-07T20:30:00Z,30.6671,-87.9365,24.41,1111122 
DISL,ioos:station:DISL:MHPA:1,2017-11-07T21:30:00Z,30.6671,-87.9365,24.41,1111122 
DISL,ioos:station:DISL:MHPA:1,2017-11-07T22:30:00Z,30.6671,-87.9365,24.22,1111122 
DISL,ioos:station:DISL:MHPA:1,2017-11-07T23:30:00Z,30.6671,-87.9365,24.0,1111122 
DISL,ioos:station:DISL:MHPA:1,2017-11-08T00:30:00Z,30.6671,-87.9365,23.27,1111122 
DISL,ioos:station:DISL:MHPA:1,2017-11-08T01:30:00Z,30.6671,-87.9365,23.5,1111122 
DISL,ioos:station:DISL:MHPA:1,2017-11-08T02:30:00Z,30.6671,-87.9365,23.07,1111122 
DISL,ioos:station:DISL:MHPA:1,2017-11-08T03:30:00Z,30.6671,-87.9365,22.93,1111122 
DISL,ioos:station:DISL:MHPA:1,2017-11-08T05:30:00Z,30.6671,-87.9365,22.42,1111122 
DISL,ioos:station:DISL:MHPA:1,2017-11-08T06:30:00Z,30.6671,-87.9365,22.42,1111122 
DISL,ioos:station:DISL:MHPA:1,2017-11-08T07:30:00Z,30.6671,-87.9365,22.32,1111122 
DISL,ioos:station:DISL:MHPA:1,2017-11-08T08:30:00Z,30.6671,-87.9365,22.29,1111122 
DISL,ioos:station:DISL:MHPA:1,2017-11-08T09:30:00Z,30.6671,-87.9365,22.09,1111122 
DISL,ioos:station:DISL:MHPA:1,2017-11-08T10:30:00Z,30.6671,-87.9365,22.09,1111122 
DISL,ioos:station:DISL:MHPA:1,2017-11-08T11:30:00Z,30.6671,-87.9365,21.88,1111122 
DISL,ioos:station:DISL:MHPA:1,2017-11-08T12:30:00Z,30.6671,-87.9365,21.88,1111122 
DISL,ioos:station:DISL:MHPA:1,2017-11-08T13:30:00Z,30.6671,-87.9365,21.24,1111122 
DISL,ioos:station:DISL:MHPA:1,2017-11-08T14:30:00Z,30.6671,-87.9365,21.41,1111122 
DISL,ioos:station:DISL:MHPA:1,2017-11-08T15:30:00Z,30.6671,-87.9365,21.51,1111122 
DISL,ioos:station:DISL:MHPA:1,2017-11-08T16:30:00Z,30.6671,-87.9365,21.14,1111122 
DISL,ioos:station:DISL:MHPA:1,2017-11-08T17:30:00Z,30.6671,-87.9365,21.28,1111122 
DISL,ioos:station:DISL:MHPA:1,2017-11-08T18:30:00Z,30.6671,-87.9365,21.31,1111122 
DISL,ioos:station:DISL:MHPA:1,2017-11-08T19:30:00Z,30.6671,-87.9365,20.13,1111122 
DISL,ioos:station:DISL:MHPA:1,2017-11-08T20:30:00Z,30.6671,-87.9365,19.15,1111122 
DISL,ioos:station:DISL:MHPA:1,2017-11-08T21:30:00Z,30.6671,-87.9365,18.85,1111122 
DISL,ioos:station:DISL:MHPA:1,2017-11-08T22:30:00Z,30.6671,-87.9365,18.73,1111122 
DISL,ioos:station:DISL:MHPA:1,2017-11-08T23:30:00Z,30.6671,-87.9365,18.22,1111122 
DISL,ioos:station:DISL:MHPA:1,2017-11-09T00:30:00Z,30.6671,-87.9365,18.05,1111122 
DISL,ioos:station:DISL:MHPA:1,2017-11-09T01:30:00Z,30.6671,-87.9365,17.72,1111122 
DISL,ioos:station:DISL:MHPA:1,2017-11-09T02:30:00Z,30.6671,-87.9365,17.12,1111122 
DISL,ioos:station:DISL:MHPA:1,2017-11-09T03:30:00Z,30.6671,-87.9365,16.65,1111122 
DISL,ioos:station:DISL:MHPA:1,2017-11-09T04:30:00Z,30.6671,-87.9365,15.81,1111122 
DISL,ioos:station:DISL:MHPA:1,2017-11-09T05:30:00Z,30.6671,-87.9365,15.37,1111122 
DISL,ioos:station:DISL:MHPA:1,2017-11-09T06:30:00Z,30.6671,-87.9365,15.34,1111122 
DISL,ioos:station:DISL:MHPA:1,2017-11-09T07:30:00Z,30.6671,-87.9365,15.27,1111122 
DISL,ioos:station:DISL:MHPA:1,2017-11-09T08:30:00Z,30.6671,-87.9365,15.0,1111122 
DISL,ioos:station:DISL:MHPA:1,2017-11-09T09:30:00Z,30.6671,-87.9365,14.36,1111122 
DISL,ioos:station:DISL:MHPA:1,2017-11-09T10:30:00Z,30.6671,-87.9365,13.86,1111122 
DISL,ioos:station:DISL:MHPA:1,2017-11-09T11:30:00Z,30.6671,-87.9365,13.63,1111122 
DISL,ioos:station:DISL:MHPA:1,2017-11-09T12:30:00Z,30.6671,-87.9365,13.29,1111122 
DISL,ioos:station:DISL:MHPA:1,2017-11-09T13:30:00Z,30.6671,-87.9365,12.69,1111122 
DISL,ioos:station:DISL:MHPA:1,2017-11-09T14:30:00Z,30.6671,-87.9365,12.21,1111122 
DISL,ioos:station:DISL:MHPA:1,2017-11-09T15:30:00Z,30.6671,-87.9365,12.49,1111122 
DISL,ioos:station:DISL:MHPA:1,2017-11-09T16:30:00Z,30.6671,-87.9365,14.02,1111122 
DISL,ioos:station:DISL:MHPA:1,2017-11-09T17:30:00Z,30.6671,-87.9365,14.02,1111122 
DISL,ioos:station:DISL:MHPA:1,2017-11-09T18:30:00Z,30.6671,-87.9365,13.85,1111122 
DISL,ioos:station:DISL:MHPA:1,2017-11-09T19:30:00Z,30.6671,-87.9365,14.22,1111122 
DISL,ioos:station:DISL:MHPA:1,2017-11-09T20:30:00Z,30.6671,-87.9365,13.65,1111122 
DISL,ioos:station:DISL:MHPA:1,2017-11-09T21:30:00Z,30.6671,-87.9365,13.45,1111122 
DISL,ioos:station:DISL:MHPA:1,2017-11-09T22:30:00Z,30.6671,-87.9365,13.29,1111122 
DISL,ioos:station:DISL:MHPA:1,2017-11-09T23:30:00Z,30.6671,-87.9365,13.4,1111122 
DISL,ioos:station:DISL:MHPA:1,2017-11-10T00:30:00Z,30.6671,-87.9365,13.43,1111122 
DISL,ioos:station:DISL:MHPA:1,2017-11-10T01:30:00Z,30.6671,-87.9365,12.65,1111122 
DISL,ioos:station:DISL:MHPA:1,2017-11-10T02:30:00Z,30.6671,-87.9365,12.32,1111122 
DISL,ioos:station:DISL:MHPA:1,2017-11-10T03:30:00Z,30.6671,-87.9365,12.35,1111122 
DISL,ioos:station:DISL:MHPA:1,2017-11-10T04:30:00Z,30.6671,-87.9365,11.92,1111122 
DISL,ioos:station:DISL:MHPA:1,2017-11-10T05:30:00Z,30.6671,-87.9365,11.35,1111122 
DISL,ioos:station:DISL:MHPA:1,2017-11-10T06:30:00Z,30.6671,-87.9365,11.12,1111122 
DISL,ioos:station:DISL:MHPA:1,2017-11-10T07:30:00Z,30.6671,-87.9365,10.68,1111122 
DISL,ioos:station:DISL:MHPA:1,2017-11-10T08:30:00Z,30.6671,-87.9365,10.51,1111122 
DISL,ioos:station:DISL:MHPA:1,2017-11-10T09:30:00Z,30.6671,-87.9365,10.14,1111122 
DISL,ioos:station:DISL:MHPA:1,2017-11-10T10:30:00Z,30.6671,-87.9365,10.0,1111122 
DISL,ioos:station:DISL:MHPA:1,2017-11-10T11:30:00Z,30.6671,-87.9365,10.0,1111122 
DISL,ioos:station:DISL:MHPA:1,2017-11-10T12:30:00Z,30.6671,-87.9365,9.8,1111122 
DISL,ioos:station:DISL:MHPA:1,2017-11-10T13:30:00Z,30.6671,-87.9365,9.7,1111122 
DISL,ioos:station:DISL:MHPA:1,2017-11-10T14:30:00Z,30.6671,-87.9365,11.41,1111122 
DISL,ioos:station:DISL:MHPA:1,2017-11-10T15:30:00Z,30.6671,-87.9365,14.12,1111122 
DISL,ioos:station:DISL:MHPA:1,2017-11-10T16:30:00Z,30.6671,-87.9365,15.77,1111122 
DISL,ioos:station:DISL:MHPA:1,2017-11-10T17:30:00Z,30.6671,-87.9365,17.34,1111122 
DISL,ioos:station:DISL:MHPA:1,2017-11-10T18:30:00Z,30.6671,-87.9365,18.21,1111122 
DISL,ioos:station:DISL:MHPA:1,2017-11-10T19:30:00Z,30.6671,-87.9365,19.18,1111122 
DISL,ioos:station:DISL:MHPA:1,2017-11-10T20:30:00Z,30.6671,-87.9365,19.15,1111122 
DISL,ioos:station:DISL:MHPA:1,2017-11-10T21:30:00Z,30.6671,-87.9365,18.98,1111122 
DISL,ioos:station:DISL:MHPA:1,2017-11-10T22:30:00Z,30.6671,-87.9365,18.2,1111122 
DISL,ioos:station:DISL:MHPA:1,2017-11-10T23:30:00Z,30.6671,-87.9365,16.1,1111122 
DISL,ioos:station:DISL:MHPA:1,2017-11-11T00:30:00Z,30.6671,-87.9365,14.87,1111122 
DISL,ioos:station:DISL:MHPA:1,2017-11-11T01:30:00Z,30.6671,-87.9365,14.41,1111122 
DISL,ioos:station:DISL:MHPA:1,2017-11-11T02:30:00Z,30.6671,-87.9365,13.57,1111122 
DISL,ioos:station:DISL:MHPA:1,2017-11-11T03:30:00Z,30.6671,-87.9365,12.93,1111122 
DISL,ioos:station:DISL:MHPA:1,2017-11-11T04:30:00Z,30.6671,-87.9365,12.86,1111122 
DISL,ioos:station:DISL:MHPA:1,2017-11-11T05:30:00Z,30.6671,-87.9365,12.86,1111122 
DISL,ioos:station:DISL:MHPA:1,2017-11-11T06:30:00Z,30.6671,-87.9365,13.17,1111122 
DISL,ioos:station:DISL:MHPA:1,2017-11-11T07:30:00Z,30.6671,-87.9365,12.99,1111122 
DISL,ioos:station:DISL:MHPA:1,2017-11-11T08:30:00Z,30.6671,-87.9365,12.36,1111122 
DISL,ioos:station:DISL:MHPA:1,2017-11-11T09:30:00Z,30.6671,-87.9365,11.88,1111122 
DISL,ioos:station:DISL:MHPA:1,2017-11-11T10:30:00Z,30.6671,-87.9365,11.65,1111122 
DISL,ioos:station:DISL:MHPA:1,2017-11-11T11:30:00Z,30.6671,-87.9365,11.59,1111122 
DISL,ioos:station:DISL:MHPA:1,2017-11-11T12:30:00Z,30.6671,-87.9365,11.72,1111122 
DISL,ioos:station:DISL:MHPA:1,2017-11-11T13:30:00Z,30.6671,-87.9365,12.86,1111122 
DISL,ioos:station:DISL:MHPA:1,2017-11-11T14:30:00Z,30.6671,-87.9365,14.77,1111122 
DISL,ioos:station:DISL:MHPA:1,2017-11-11T15:30:00Z,30.6671,-87.9365,16.58,1111122 
DISL,ioos:station:DISL:MHPA:1,2017-11-11T16:30:00Z,30.6671,-87.9365,18.21,1111122 
DISL,ioos:station:DISL:MHPA:1,2017-11-11T17:30:00Z,30.6671,-87.9365,19.18,1111122 
DISL,ioos:station:DISL:MHPA:1,2017-11-11T18:30:00Z,30.6671,-87.9365,20.2,1111122 
DISL,ioos:station:DISL:MHPA:1,2017-11-11T19:30:00Z,30.6671,-87.9365,21.24,1111122 
DISL,ioos:station:DISL:MHPA:1,2017-11-11T20:30:00Z,30.6671,-87.9365,21.76,1111122 
DISL,ioos:station:DISL:MHPA:1,2017-11-11T21:30:00Z,30.6671,-87.9365,21.42,1111122 
DISL,ioos:station:DISL:MHPA:1,2017-11-11T22:30:00Z,30.6671,-87.9365,21.7,1111122 
DISL,ioos:station:DISL:MHPA:1,2017-11-11T23:30:00Z,30.6671,-87.9365,19.29,1111122 
DISL,ioos:station:DISL:MHPA:1,2017-11-12T00:30:00Z,30.6671,-87.9365,18.57,1111122 
DISL,ioos:station:DISL:MHPA:1,2017-11-12T01:30:00Z,30.6671,-87.9365,17.96,1111122 
DISL,ioos:station:DISL:MHPA:1,2017-11-12T02:30:00Z,30.6671,-87.9365,18.4,1111122 
DISL,ioos:station:DISL:MHPA:1,2017-11-12T03:30:00Z,30.6671,-87.9365,18.27,1111122 
DISL,ioos:station:DISL:MHPA:1,2017-11-12T04:30:00Z,30.6671,-87.9365,17.53,1111122 
DISL,ioos:station:DISL:MHPA:1,2017-11-12T05:30:00Z,30.6671,-87.9365,16.32,1111122 
DISL,ioos:station:DISL:MHPA:1,2017-11-12T06:30:00Z,30.6671,-87.9365,15.44,1111122 
DISL,ioos:station:DISL:MHPA:1,2017-11-12T07:30:00Z,30.6671,-87.9365,15.07,1111122 
DISL,ioos:station:DISL:MHPA:1,2017-11-12T08:30:00Z,30.6671,-87.9365,14.9,1111122 
DISL,ioos:station:DISL:MHPA:1,2017-11-12T09:30:00Z,30.6671,-87.9365,14.9,1111122 
DISL,ioos:station:DISL:MHPA:1,2017-11-12T10:30:00Z,30.6671,-87.9365,14.86,1111122 
DISL,ioos:station:DISL:MHPA:1,2017-11-12T11:30:00Z,30.6671,-87.9365,14.97,1111122 
DISL,ioos:station:DISL:MHPA:1,2017-11-12T12:30:00Z,30.6671,-87.9365,14.8,1111122 
DISL,ioos:station:DISL:MHPA:1,2017-11-12T13:30:00Z,30.6671,-87.9365,14.66,1111122 
DISL,ioos:station:DISL:MHPA:1,2017-11-12T14:30:00Z,30.6671,-87.9365,14.66,1111122 
DISL,ioos:station:DISL:MHPA:1,2017-11-12T15:30:00Z,30.6671,-87.9365,15.17,1111122 
DISL,ioos:station:DISL:MHPA:1,2017-11-12T16:30:00Z,30.6671,-87.9365,15.61,1111122 
DISL,ioos:station:DISL:MHPA:1,2017-11-12T17:30:00Z,30.6671,-87.9365,16.15,1111122 
DISL,ioos:station:DISL:MHPA:1,2017-11-12T18:30:00Z,30.6671,-87.9365,16.21,1111122 
DISL,ioos:station:DISL:MHPA:1,2017-11-12T19:30:00Z,30.6671,-87.9365,16.38,1111122 
DISL,ioos:station:DISL:MHPA:1,2017-11-12T20:30:00Z,30.6671,-87.9365,17.12,1111122 
DISL,ioos:station:DISL:MHPA:1,2017-11-12T21:30:00Z,30.6671,-87.9365,18.13,1111122 
DISL,ioos:station:DISL:MHPA:1,2017-11-12T22:30:00Z,30.6671,-87.9365,17.76,1111122 
DISL,ioos:station:DISL:MHPA:1,2017-11-12T23:30:00Z,30.6671,-87.9365,17.26,1111122 
DISL,ioos:station:DISL:MHPA:1,2017-11-13T00:30:00Z,30.6671,-87.9365,16.86,1111122 
DISL,ioos:station:DISL:MHPA:1,2017-11-13T01:30:00Z,30.6671,-87.9365,16.45,1111122 